Location: Unspecified
(29.9680°N, 0.0000°E)
Time: 20:27:57
(UTC+00:00)

A-11 Canister half - Pass Details

Date: 18 June 2019
Orbit: 1526 x 1683 km, 47.3° (Epoch: 19 July)

Event Time Altitude Azimuth Distance (km) Brightness Sun altitude
Rises 10:26:32 0° 309° (NW) 4,676 11.3 67.9°
Reaches altitude 10° 10:29:52 10° 317° (NW) 3,694 10.9 68.6°
Maximum altitude 10:38:29 40° 25° (NNE) 2,133 10.5 70.4°
Drops below altitude 10° 10:47:12 10° 92° (E) 3,753 11.5 72.3°
Sets 10:50:36 0° 100° (E) 4,757 11.8 73.0°
